Location: Biharia
(46.4333°N, 22.8000°E)
Time: 00:17:51
(UTC+00:00)

Cosmos 1703 - Pass Details

Date: 16 October 2021
Orbit: 521 x 539 km, 82.5° (Epoch: 02 December)

Event Time Altitude Azimuth Distance (km) Brightness Sun altitude
Rises 16:25:21 0° 359° (N) 2,700 6.8 -8.5°
Reaches altitude 10° 16:27:41 10° 10° (N) 1,801 5.8 -8.9°
Maximum altitude 16:31:15 32° 74° (ENE) 941 4.0 -9.5°
Drops below altitude 10° 16:34:47 10° 138° (SE) 1,777 5.6 -10.1°
Sets 16:37:05 0° 149° (SSE) 2,658 6.5 -10.5°
